Flag for Germany Weather past 2 weeks in Memmingen, Bavaria, Germany

Now
59 °F

Light rain. Overcast.


Feels Like: 59 °F
Forecast: 43 / 60 °F
Wind: 2 mph from Southwest

Location: Kempten

Current Time: Oct 20, 2014 at 11:45:43 PM

Latest Report: Oct 20, 2014 at 11:00 PM


Visibility: 6 mi

Pressure: 30.03 "Hg

Humidity: 94%

Dew point: 57 °F

Location of MemmingenLocation

Historic Weather in Memmingen — Graph

°F

Memmingen temperature yesterday

Maximum temperature yesterday: 72 °F (at 3:00 PM)
Minimum temperature yesterday: 42 °F (at 8:00 AM)
Average temperature yesterday: 56 °F

Past Weeks' High & Low Weather Summary

 TemperatureHumidityPressure
High79 °F (Oct 9, 2:00 PM)100% (Oct 7, 2:00 AM)30.28 "Hg (Oct 7, 2:00 AM)
Low42 °F (Oct 12, 8:00 AM)25% (Oct 9, 4:00 PM)29.73 "Hg (Oct 15, 3:00 PM)
Average56 °F81%29.95 "Hg
* Reported Oct 5 10:00 PM — Oct 20 10:00 PM, Memmingen, Weather by CustomWeather, © 2014

Note: Actual official high and low records may vary slightly from our data, if they occured in-between our weather recording intervals... More about our weather records

Advertising

Memmingen weather history for previous 24 hours

 ConditionsComfort  
Time TempWeatherWind HumidityBarometerVisibility
10:00 PM
Oct 20
61 °FLight rain. Overcast.2 mph80%30.00 "Hg11 mi
9:00 PM63 °FOvercast.2 mph69%29.99 "Hg25 mi
8:00 PM64 °FOvercast.3 mph65%30.01 "Hg25 mi
7:00 PM65 °FOvercast.2 mph65%30.00 "Hg28 mi
6:00 PM67 °FOvercast.2 mph61%30.00 "Hg31 mi
4:00 PM70 °FOvercast.5 mph58%30.01 "Hg10 mi
3:00 PM68 °FOvercast.3 mph63%30.04 "Hg25 mi
2:00 PM69 °FPartly sunny.3 mph57%30.06 "Hg28 mi
1:00 PM67 °FScattered clouds.3 mph61%30.09 "Hg22 mi
12:00 PM66 °FOvercast.3 mph55%30.11 "Hg37 mi
10:00 AM59 °FOvercast.1 mph66%30.15 "Hg28 mi
9:00 AM53 °FOvercast.2 mph78%30.17 "Hg34 mi
8:00 AM51 °FPassing clouds.2 mph84%30.18 "Hg31 mi
7:00 AM51 °FPassing clouds.2 mph82%30.19 "Hg34 mi
5:00 AM51 °FPassing clouds.2 mph83%30.20 "Hg37 mi
4:00 AM53 °FPassing clouds.2 mph78%30.21 "Hg37 mi
3:00 AM53 °FPassing clouds.2 mph76%30.22 "Hg40 mi
2:00 AM51 °FPassing clouds.1 mph80%30.22 "Hg31 mi
1:00 AM53 °FPassing clouds.2 mph76%30.21 "Hg43 mi
12:00 AM54 °FPassing clouds.3 mph74%30.21 "Hg43 mi
11:00 PM
Oct 19
54 °FClear.2 mph75%30.22 "Hg40 mi
Weather by CustomWeather, © 2014

See weather overviewHow to use our weather pages